Regional Weather Roundup
Issued by NWS

Home | Current Version | Previous Version | Text Only | Print | Product List | Glossary On
Versions: 1 2 3 4 5 6 7 8 9 10 11 12 13 14 15 16 17 18 19 20 21 22 23 24 25 26 27 28 29 30 31 32 33 34 35 36 37 38 39 40 41 42 43 44 45 46 47 48 49 50
560
ASUS43 KDTX 300710
RWRMI
MICHIGAN HOURLY REGIONAL WEATHER ROUNDUP
NATIONAL WEATHER SERVICE DETROIT/PONTIAC MI
300 AM EDT THU MAR 30 2017

NOTE: "FAIR" INDICATES FEW OR NO CLOUDS BELOW 12,000 FEET WITH NO
SIGNIFICANT WEATHER AND/OR OBSTRUCTION TO VISIBILITY.

MIZ047>049-052>055-059>063-066>070-074>076-081>083-300800-
SOUTHEAST LOWER MICHIGAN

CITY           SKY/WX    TMP DP  RH WIND       PRES   REMARKS
ADRIAN         CLOUDY    41  32  70 E16       30.11F
ALMA           CLOUDY    36  31  85 NE8       30.16F WCI  29
ANN ARBOR      CLOUDY    40  33  76 NE8       30.14F WCI  34
BAD AXE        CLOUDY    36  28  74 E7        30.20F WCI  30
CARO           CLOUDY    37  29  74 NE7       30.17F WCI  31
DETROIT CITY   CLOUDY    39  34  82 NE7       30.16F WCI  34
DETROIT        CLOUDY    40  33  76 NE8       30.15F WCI  34
FLINT          CLOUDY    37  29  72 E9        30.16F WCI  30
GROSSE ILE     CLOUDY    40  34  80 NE12      30.13F WCI  32
HILLSDALE      CLOUDY    41  32  70 E13G21    30.08F
HOWELL         CLOUDY    37  31  79 NE8       30.14F WCI  30

CITY           SKY/WX    TMP DP  RH WIND       PRES   REMARKS
JACKSON        CLOUDY    40  33  76 E12       30.10F WCI  33
LAMBERTVILLE   CLOUDY    45  33  63 E8G18     30.13R
LANSING        CLOUDY    37  31  78 E12       30.13F WCI  29
LAPEER         CLOUDY    37  31  78 E3        30.17F
MASON          CLOUDY    37  33  84 E7        30.12F WCI  32
MONROE         CLOUDY    41  34  75 NE10      30.13F
MT. CLEMENS    CLOUDY    39  34  84 NE8       30.15F WCI  33
PONTIAC        CLOUDY    38  30  73 NE7       30.14F WCI  33
PORT HOPE        N/A     35  31  85 E13       30.20F WCI  26
PORT HURON     CLOUDY    37  32  81 NE3       30.20F
TRI CITIES     CLOUDY    37  30  75 NE12      30.18F WCI  29
MIDLAND        CLOUDY    37  28  72 E10       30.17F WCI  29
TROY           CLOUDY    39  30  70 NE8       30.17F WCI  34
SAGINAW HB     CLOUDY    36  28  75 NE10      30.17F WCI  28
$$
MIZ043>046-050>051-056>058-064>065-071>073-077>080-300800-
SOUTHWEST LOWER MICHIGAN

CITY           SKY/WX    TMP DP  RH WIND       PRES   REMARKS
BATTLE CREEK   CLOUDY    41  36  82 NE14G22   30.07F
BENTON HARBOR  CLOUDY    45  35  68 E18G28    29.99F
BIG RAPIDS     CLOUDY    35  24  62 E14       30.14F WCI  26
COLDWATER      CLOUDY    44  31  60 E10G21    30.05F
FREMONT        CLOUDY    36  23  59 E13G20    30.11F WCI  28
HOLLAND        CLOUDY    39  34  82 E12       30.07F WCI  32
GRAND RAPIDS   CLOUDY    37  35  92 E15       30.09F WCI  28
IONIA          CLOUDY    35  31  84 NE13G20   30.11F WCI  27
KALAMAZOO      LGT RAIN  43  35  73 E13G18    30.05F
LUDINGTON      CLOUDY    38  23  53 E10G22    30.12F WCI  31
MARSHALL       CLOUDY    41  35  78 E12       30.07F
MOUNT PLEASANT CLOUDY    36  26  68 E9        30.16F WCI  29
MUSKEGON       CLOUDY    38  29  70 E16       30.08F WCI  29
SOUTH HAVEN    LGT RAIN  41  38  90 E12       30.01F
$$
MIZ016>042-300800-
NORTHERN LOWER MICHIGAN

CITY           SKY/WX    TMP DP  RH WIND       PRES   REMARKS
ALPENA         CLOUDY    35  26  69 E12G18    30.25F WCI  27
BEAVER ISLAND  CLOUDY    33  26  75 E8        30.22F WCI  27
BELLAIRE       CLOUDY    37  21  53 E6        30.20F WCI  32
CADILLAC       CLOUDY    34  21  60 E12       30.14F WCI  25
CHARLEVOIX     CLOUDY    36  24  64 E10       30.23F WCI  28
FRANKFORT      CLOUDY    39  24  54 SE8       30.16S WCI  33
GAYLORD        MOCLDY    34  21  59 VRB6      30.20F WCI  29
GRAYLING       CLOUDY    34  23  64 E8        30.20F WCI  27
HARBOR SPRINGS MOCLDY    34  23  65 E8G16     30.23F WCI  27
HOUGHTON LAKE  FLURRIES  33  26  75 E13       30.18F WCI  24
OSCODA         CLOUDY    36  29  75 E7        30.23F WCI  30
ROGERS CITY    MOCLDY    34  29  83 E9        30.27F WCI  27
TRAVERSE CITY  CLOUDY    38  23  55 SE7       30.18F WCI  33
$$
MIZ007>008-015-300800-
EASTERN UPPER MICHIGAN

CITY           SKY/WX    TMP DP  RH WIND       PRES   REMARKS
KINROSS        CLOUDY    33  22  63 E10       30.24F WCI  25
MACKINAC ISLAN CLOUDY    32  29  86 E10G17    30.23F WCI  24
NEWBERRY       CLOUDY    31  24  73 E5        30.22F WCI  26
S. S. MARIE    CLOUDY    34  23  64 E7        30.26F WCI  28
MUNISING         N/A     35  22  58 CALM      30.20F
$$
MIZ004>006-011>014-085-300800-
CENTRAL UPPER MICHIGAN

CITY           SKY/WX    TMP DP  RH WIND       PRES   REMARKS
MANISTIQUE     PTCLDY    33  28  80 E8        30.21S WCI  27
ESCANABA       CLOUDY    36  28  73 E10       30.18F WCI  28
MENOMINEE      LGT RAIN  34  29  82 N3        30.15F
SAWYER-GWINN   CLOUDY    32  25  75 E5        30.17F WCI  27
$$
MIZ001>003-009>011-084-300800-
WESTERN UPPER MICHIGAN

CITY           SKY/WX    TMP DP  RH WIND       PRES   REMARKS
IRON MOUNTAIN  CLOUDY    33  24  69 N3        30.14F
HOUGHTON       CLOUDY    31  27  85 E9        30.16F WCI  23
COPPER HARBOR    N/A     34  29  82 S5        30.20F WCI  30
IRONWOOD       CLOUDY    36  28  73 NE3       30.11F
$$

ABBREVIATIONS USED IN REMARKS
   TC - TEMPERATURE IN CELSIUS
  WCI - WIND CHILL INDEX
   HX - HEAT INDEX
  VSB - VISIBILITY





USA.gov is the U.S. government's official web portal to all federal, state and local government web resources and services.